Regional Weather Roundup
Issued by NWS Raleigh/Durham, NC

Home | Current Version | Previous Version | Text Only | Print | Product List | Glossary On
Versions: 1 2 3 4 5 6 7 8 9 10 11 12 13 14 15 16 17 18 19 20 21 22 23 24 25 26 27 28
000
ASUS42 KRAH 290310
RWRRAH
NORTH CAROLINA WEATHER ROUNDUP
NATIONAL WEATHER SERVICE RALEIGH NC
1100 PM EDT THU APR 28 2016

NOTE: "FAIR" INDICATES FEW OR NO CLOUDS BELOW 12,000 FEET WITH NO
SIGNIFICANT WEATHER AND/OR OBSTRUCTIONS TO VISIBILITY.

NCZ001-053-055-056-065-067-290400-
WESTERN NORTH CAROLINA

CITY           SKY/WX    TMP DP  RH WIND       PRES   REMARKS
ASHEVILLE      CLEAR     64  48  56 NW6       29.99R
JEFFERSON      CLEAR     65  50  58 W13G18    30.00R
MORGANTON      CLEAR     59  59  99 SW3       29.96S
HICKORY        CLEAR     66  65  96 CALM      29.91S
RUTHERFORDTON  CLEAR     73  49  43 NW3       29.93R
MOUNT AIRY     CLEAR     69  65  88 NE5       29.93S
BOONE          CLEAR     64  49  58 SW7       30.01R
$$

NCZ021-022-025-041-071-084-088-290400-
CENTRAL NORTH CAROLINA

CITY           SKY/WX    TMP DP  RH WIND       PRES   REMARKS
CHARLOTTE      CLEAR     70  60  70 SW5       29.89S
GREENSBORO     PTCLDY    65  62  90 NE5       29.89R
WINSTON-SALEM  CLEAR     66  64  93 NE6       29.91R
RALEIGH-DURHAM LGT RAIN  66  63  90 NE7       29.89R
FORT BRAGG     NOT AVBL
FAYETTEVILLE   CLOUDY    69  66  90 S5        29.88S
BURLINGTON     CLEAR     64  62  93 NE5       29.89R
LAURINBURG     PTCLDY    75  66  73 S7        29.89R
$$

NCZ011-015-027-028-043-044-047-080-103-290400-
NORTHEASTERN NORTH CAROLINA

CITY           SKY/WX    TMP DP  RH WIND       PRES   REMARKS
ROCKY MT-WILSO CLOUDY    65  64  97 CALM      29.90R
GREENVILLE     LGT RAIN  64  64 100 SW5       29.95R
WASHINGTON     RAIN      69  67  93 N10       29.92R
ELIZABETH CITY FOG       58  58 100 N10       29.92R VSB 3/4
MANTEO         NOT AVBL
CAPE HATTERAS  CLOUDY    70  68  93 SW13      29.90F
$$

NCZ078-087-090-091-093-098-101-290400-
SOUTHEASTERN NORTH CAROLINA

CITY           SKY/WX    TMP DP  RH WIND       PRES   REMARKS
LUMBERTON      PTCLDY    73  65  75 S3        29.89R
GOLDSBORO      NOT AVBL
KINSTON        HVY RAIN  69  65  89 NE8       29.91R
KENANSVILLE    PTCLDY    72  64  75 CALM      29.91R
NEW BERN       CLOUDY    72  65  78 SW7       29.92R
CHERRY POINT   MOCLDY    71  66  84 SW12      29.92R
BEAUFORT       CLOUDY    69  67  93 SW8       29.92R
JACKSONVILLE   MOCLDY    71  64  78 SW8       29.90R
WILMINGTON     CLEAR     71  63  75 SW10      29.91R
$$





USA.gov is the U.S. government's official web portal to all federal, state and local government web resources and services.